Regional Weather Roundup
Issued by NWS

Home | Current Version | Previous Version | Text Only | Print | Product List | Glossary Off
Versions: 1 2 3 4 5 6 7 8 9 10 11 12 13 14 15 16 17 18 19 20 21 22 23 24 25 26 27 28 29 30 31 32 33 34 35 36 37 38 39 40 41 42 43 44 45 46 47 48 49 50

000
ASUS43 KDMX 210806
RWRIA

WEATHER ROUNDUP FOR IOWA
NATIONAL WEATHER SERVICE DES MOINES IA
300 AM CDT SAT APR 21 2018

NOTE: "FAIR" INDICATES FEW OR NO CLOUDS BELOW 12,000 FEET WITH NO
SIGNIFICANT WEATHER AND/OR OBSTRUCTIONS TO VISIBILITY.

* - THESE STATIONS ARE NOT NWS STATIONS...THUS NOT UNDER NWS
QUALITY CONTROL.  THEY ALSO DO NOT REPORT WEATHER SUCH
AS PRECIPITATION OR FOG.

IAZ001>003-012>014-020>022-031>034-043>046-210900-
   NORTHWEST IOWA

CITY           SKY/WX    TMP DP  RH WIND       PRES   REMARKS
CARROLL *      CLOUDY    43  37  81 NE7       30.36F
CHEROKEE *     CLOUDY    38  31  76 E3        30.37F
DENISON *      CLOUDY    45  37  76 E7        30.38R
LE MARS *      CLOUDY    43  30  61 E14       30.35F
ORANGE CITY *  CLOUDY    39  36  87 E5        30.36F
SHELDON *      CLOUDY    37  34  87 E10       30.35F WCI  30
SIOUX CITY     CLOUDY    43  32  65 E3        30.37R
SPENCER        CLOUDY    38  29  70 CALM      30.39S
STORM LAKE *   CLOUDY    36  32  87 E5        30.36S WCI  32
$$

IAZ055>058-069>071-079>083-090>094-210900-
   SOUTHWEST IOWA

CITY           SKY/WX    TMP DP  RH WIND       PRES   REMARKS
ATLANTIC *     CLOUDY    45  32  61 N6        30.35R
AUDUBON *      CLOUDY    45  37  76 CALM      30.37R
CLARINDA *     CLOUDY    48  27  43 NE6       30.33F
COUNCIL BLFS * CLOUDY    48  30  49 NE8       30.32F
CRESTON *      CLOUDY    45  27  49 NE7       30.35S
HARLAN  *      CLOUDY    45  34  65 N7        30.39R
LAMONI         CLOUDY    47  24  40 E3        30.33S
RED OAK *      CLOUDY    46  30  53 NE7       30.32F
SHENANDOAH *   CLOUDY    46  28  49 NE7       30.32F
$$

IAZ047>049-059>061-072>074-084-210900-
   CENTRAL IOWA

CITY           SKY/WX    TMP DP  RH WIND       PRES   REMARKS
AMES           CLOUDY    43  33  68 N3        30.39R
ANKENY *       CLOUDY    43  36  75 N5        30.39R
BOONE *        CLOUDY    43  34  70 NE5       30.37R
CHARITON *     CLOUDY    46  27  46 E8        30.34S
DES MOINES     CLOUDY    49  25  39 N5        30.37R
GRINNELL*      CLOUDY    46  26  45 CALM      30.38R
KNOXVILLE *    CLOUDY    48  21  34 SE3       30.35R
MARSHALLTOWN   CLOUDY    41  36  82 S3        30.37R
NEWTON *       CLOUDY    46  25  42 NE5       30.37R
PELLA *        CLOUDY    47  22  37 E3        30.37R
PERRY *        FAIR      42  31  64 NE6       30.36F
$$

IAZ004>006-015-016-023>025-035-036-210900-
   NORTH CENTRAL IOWA

CITY           SKY/WX    TMP DP  RH WIND       PRES   REMARKS
ALGONA *       MOCLDY    37  30  75 NE5       30.39S WCI  34
CLARION *      CLOUDY    37  30  75 E10       30.39R WCI  30
ESTHERVILLE    CLOUDY    33  30  88 SW6       30.40R WCI  28
FORT DODGE *   CLOUDY    39  34  82 E5        30.39S
MASON CITY     CLOUDY    36  29  75 NE3       30.40F
FOREST CITY *  CLOUDY    39  28  65 NE5       30.38F
WEBSTER CITY * CLOUDY    41  32  70 E7        30.37S
IOWA FALLS *   FAIR      42  32  66 N3        30.40R
$$

IAZ007>011-017>019-026>030-037>042-050>054-066-210900-
   NORTHEAST IOWA

CITY           SKY/WX    TMP DP  RH WIND       PRES   REMARKS
CEDAR RAPIDS   MOCLDY    46  28  49 E10       30.35F
CHARLES CITY * CLOUDY    39  28  65 NE7       30.40S WCI  34
CLINTON *      FAIR      44  28  53 E6        30.42R
DECORAH *      MOCLDY    39  27  60 CALM      30.40R
DUBUQUE        FAIR      43  30  60 CALM      30.41R
MONTICELLO *   CLOUDY    41  36  81 CALM      30.41R
OELWEIN *      CLOUDY    43  36  75 E9        30.39F
WATERLOO       CLOUDY    42  34  73 NE12      30.35F
$$

IAZ064-065-067-068-078-210900-
   EAST CENTRAL IOWA

CITY           SKY/WX    TMP DP  RH WIND       PRES   REMARKS
DAVENPORT      FAIR      45  27  49 E6        30.42R
IOWA CITY      MOCLDY    48  27  44 NE8       30.37F
MT. PLEASANT * CLOUDY    45  28  53 E5        30.36F
MUSCATINE *    FAIR      45  32  61 NE6       30.39R
QUAD CITIES    FAIR      47  27  45 E8        30.39R
$$

IAZ062-063-075>077-085>089-095>099-210900-
   SOUTHEAST IOWA

CITY           SKY/WX    TMP DP  RH WIND       PRES   REMARKS
BURLINGTON     CLOUDY    49  24  37 E10       30.34F
FAIRFIELD *    CLOUDY    46  25  42 E3        30.36R
FORT MADISON * CLOUDY    48  27  43 E7        30.35F
KEOKUK *       CLOUDY    50  25  37 SE6G13    30.34F
OSKALOOSA *    FAIR      44  25  48 SE3       30.36R
CENTERVILLE *    N/A     45  25  45 CALM      30.36R
OTTUMWA        CLOUDY    47  24  40 E6        30.35S
WASHINGTON *   CLOUDY    46  28  49 E8        30.37F
$$

ABBREVIATIONS USED IN REMARKS
   TC - TEMPERATURES IN CELSIUS
  WCI - WIND CHILL INDEX
   HX - HEAT INDEX
  VSB - VISIBILITY
$$





USA.gov is the U.S. government's official web portal to all federal, state and local government web resources and services.